Kowanyama Observation History
Time Wind Speed Temp Pressure Rel. Hum Rain
30/10:00am E 7-12 kts 30.4°c 1011.2 hPa 59% 0.0mm
30/09:30am ESE 7-10 kts 29.7°c 1011.2 hPa 61% 0.0mm
30/09:00am ESE 7-10 kts 28.8°c 1011.1 hPa 64% 0.0mm
30/08:30am ESE 8-11 kts 27.4°c 1010.9 hPa 68% 0.0mm
30/08:00am ESE 7-10 kts 26.4°c 1010.5 hPa 76% 0.0mm
30/07:30am ESE 5-7 kts 25.1°c 1010.2 hPa 86% 0.0mm
30/07:00am SE 4-5 kts 24.3°c 1010.0 hPa 91% 0.0mm
30/06:30am SE 4-5 kts 24.2°c 1009.5 hPa 91% 0.0mm
30/06:00am SE 4-6 kts 24.2°c 1009.2 hPa 92% 0.0mm
30/05:30am SE 5-6 kts 24.3°c 1008.9 hPa 92% 0.0mm
30/05:00am SSE 4-5 kts 24.2°c 1008.7 hPa 93% 0.0mm
30/04:30am SSE 3-4 kts 24.2°c 1008.6 hPa 92% 0.0mm
30/04:00am SE 3-4 kts 24.7°c 1008.6 hPa 90% 0.0mm
30/03:30am ESE 5-6 kts 25.1°c 1008.6 hPa 89% 0.0mm
30/03:00am SE 3-4 kts 25.0°c 1008.7 hPa 88% 0.0mm
30/02:30am SE 4-5 kts 25.4°c 1008.8 hPa 86% 0.0mm
30/02:00am E 4-5 kts 25.5°c 1009.1 hPa 85% 0.0mm
30/01:30am ESE 4-6 kts 26.0°c 1009.7 hPa 83% 0.0mm
30/01:00am SE 7-8 kts 25.9°c 1010.0 hPa 86% 0.0mm
30/12:30am E 4-5 kts 25.5°c 1010.2 hPa 86% 0.0mm
30/12:00am ENE 3-5 kts 25.4°c 1010.2 hPa 85% 0.0mm
Time Wind Speed Temp Pressure Rel. Hum Rain
29/11:30pm ENE 2-4 kts 25.6°c 1010.4 hPa 84% 0.0mm
29/11:00pm E 1-3 kts 26.0°c 1010.3 hPa 82% 0.0mm
29/10:30pm NNE 5-6 kts 26.0°c 1010.3 hPa 83% 0.0mm
29/10:00pm NE 6-10 kts 26.4°c 1010.6 hPa 83% 0.0mm
29/09:30pm ENE 4-7 kts 27.0°c 1010.4 hPa 81% 0.0mm
29/09:00pm ENE 1-3 kts 26.9°c 1010.0 hPa 82% 0.0mm
29/08:30pm ESE 3-5 kts 26.9°c 1009.6 hPa 81% 0.0mm
29/08:00pm CALM 0 kts 26.6°c 1009.2 hPa 80% 0.0mm
29/07:30pm NNE 3-5 kts 26.8°c 1008.8 hPa 79% 0.0mm
29/07:00pm NNE 6-10 kts 27.7°c 1008.4 hPa 75% 0.0mm
29/06:30pm ESE 3-4 kts 29.7°c 1007.8 hPa 67% 0.0mm
29/06:00pm SSE 5-7 kts 29.9°c 1007.5 hPa 66% 0.0mm
29/05:30pm E 8-12 kts 30.9°c 1007.1 hPa 58% 0.0mm
29/05:00pm SE 7-9 kts 33.0°c 1006.9 hPa 50% 0.0mm
29/04:30pm SSE 5-7 kts 31.9°c 1006.9 hPa 63% 0.0mm
29/04:00pm SSE 2-10 kts 33.3°c 1006.7 hPa 52% 0.0mm
29/03:30pm ESE 5-8 kts 33.3°c 1006.8 hPa 48% 0.0mm
29/03:00pm SSE 6-8 kts 33.4°c 1007.1 hPa 48% 0.0mm
29/02:30pm SE 8-11 kts 32.7°c 1007.4 hPa 51% 0.0mm
29/02:00pm ESE 7-9 kts 33.0°c 1007.6 hPa 50% 0.0mm
29/01:30pm E 7-12 kts 32.3°c 1008.1 hPa 53% 0.0mm
29/01:00pm ENE 6-9 kts 31.9°c 1008.5 hPa 52% 0.0mm
29/12:30pm ENE 7-12 kts 32.7°c 1009.0 hPa 56% 0.0mm
29/12:00pm E 7-12 kts 31.7°c 1009.4 hPa 52% 0.0mm
29/11:30am ESE 8-12 kts 31.1°c 1009.7 hPa 57% 0.0mm
29/11:00am E 9-14 kts 30.6°c 1010.1 hPa 59% 0.0mm
29/10:30am E 8-13 kts 30.2°c 1010.2 hPa 60% 0.0mm
29/10:00am ENE 9-15 kts 29.7°c 1010.5 hPa 61% 0.0mm
29/09:30am ENE 6-8 kts 29.4°c 1010.4 hPa 64% 0.0mm
29/09:00am ESE 5-9 kts 28.5°c 1010.4 hPa 68% 0.2mm
29/08:30am E 5-9 kts 27.3°c 1010.2 hPa 74% 0.2mm
29/08:00am E 4-6 kts 26.3°c 1009.9 hPa 80% 0.2mm
29/07:30am SE 3-4 kts 24.9°c 1009.7 hPa 87% 0.2mm
29/07:00am SE 1-3 kts 24.1°c 1009.4 hPa 93% 0.2mm
29/06:30am SE 1-4 kts 24.0°c 1009.0 hPa 93% 0.2mm
29/06:00am ESE 3-4 kts 24.0°c 1009.0 hPa 91% 0.2mm
29/05:30am CALM 0 kts 24.2°c 1008.8 hPa 91% 0.2mm
29/05:00am CALM 0 kts 24.1°c 1008.7 hPa 90% 0.2mm
29/04:30am E 1-4 kts 24.4°c 1008.4 hPa 89% 0.2mm
29/04:00am CALM 0 kts 24.6°c 1008.4 hPa 89% 0.2mm
29/03:30am CALM 0 kts 24.6°c 1008.4 hPa 87% 0.2mm
29/03:00am CALM 0 kts 24.8°c 1008.5 hPa 86% 0.2mm
29/02:30am CALM 0 kts 25.2°c 1008.7 hPa 85% 0.2mm
29/02:00am ESE 2-3 kts 25.4°c 1008.8 hPa 83% 0.2mm
29/01:30am SE 4-6 kts 25.7°c 1009.1 hPa 84% 0.2mm
29/01:00am CALM 0 kts 25.5°c 1009.2 hPa 84% 0.2mm
29/12:30am NW 2-4 kts 25.7°c 1009.4 hPa 82% 0.2mm
29/12:00am NNE 1-4 kts 25.9°c 1009.4 hPa 79% 0.2mm
Time Wind Speed Temp Pressure Rel. Hum Rain
28/11:30pm NNE 2-4 kts 26.2°c 1009.3 hPa 78% 0.2mm
28/11:00pm NE 2-4 kts 26.7°c 1009.3 hPa 73% 0.2mm
28/10:30pm NE 3-5 kts 27.1°c 1009.3 hPa 70% 0.2mm
28/10:00pm ENE 5-8 kts 27.3°c 1009.3 hPa 69% 0.2mm
28/09:30pm ESE 4-5 kts 28.1°c 1008.9 hPa 67% 0.2mm
28/09:00pm SE 4-5 kts 28.3°c 1008.7 hPa 69% 0.2mm
28/08:30pm SE 3-4 kts 28.9°c 1008.4 hPa 65% 0.2mm
28/08:00pm SSE 4-5 kts 29.2°c 1008.1 hPa 62% 0.2mm
28/07:30pm SSE 4-6 kts 29.8°c 1007.6 hPa 61% 0.2mm
28/07:00pm SSE 5-6 kts 30.4°c 1007.2 hPa 60% 0.2mm
28/06:30pm SE 4-5 kts 31.5°c 1006.8 hPa 56% 0.2mm
28/06:00pm SE 5-7 kts 32.6°c 1006.6 hPa 50% 0.2mm
28/05:30pm SE 5-8 kts 33.1°c 1006.4 hPa 47% 0.2mm
28/05:00pm SSE 8-11 kts 33.5°c 1006.3 hPa 46% 0.2mm
28/04:30pm SE 7-10 kts 34.0°c 1006.5 hPa 40% 0.2mm
28/04:00pm SE 6-9 kts 33.9°c 1006.5 hPa 47% 0.2mm
28/03:30pm SE 6-9 kts 33.6°c 1006.8 hPa 48% 0.2mm
28/03:00pm SSE 5-9 kts 33.6°c 1007.3 hPa 48% 0.2mm
28/02:30pm ESE 5-7 kts 32.7°c 1007.7 hPa 49% 0.2mm
28/02:00pm E 6-9 kts 33.9°c 1008.1 hPa 53% 0.2mm
28/01:30pm SE 8-11 kts 33.0°c 1008.4 hPa 50% 0.2mm
28/01:00pm E 7-13 kts 32.5°c 1009.1 hPa 50% 0.2mm
28/12:30pm ESE 8-16 kts 32.8°c 1009.6 hPa 50% 0.2mm
28/12:00pm E 6-10 kts 31.5°c 1010.2 hPa 56% 0.2mm
28/11:30am ESE 9-13 kts 31.2°c 1010.7 hPa 55% 0.2mm
28/11:00am E 7-11 kts 30.8°c 1011.1 hPa 58% 0.2mm
28/10:30am E 7-11 kts 29.8°c 1011.2 hPa 60% 0.2mm
28/10:00am ENE 6-11 kts 29.5°c 1011.1 hPa 63% 0.0mm
28/09:30am ESE 6-8 kts 28.8°c 1011.4 hPa 68% 0.0mm
28/09:00am E 4-6 kts 27.7°c 1011.4 hPa 72% 0.2mm
28/08:30am E 4-6 kts 27.0°c 1011.2 hPa 74% 0.2mm
28/08:00am ENE 2-4 kts 25.1°c 1010.7 hPa 86% 0.2mm
28/07:30am SE 3-4 kts 25.0°c 1010.4 hPa 87% 0.2mm
28/07:00am SE 3-5 kts 24.7°c 1010.1 hPa 89% 0.2mm
28/06:30am E 2-4 kts 24.5°c 1009.8 hPa 89% 0.2mm
28/06:00am E 1-3 kts 24.6°c 1009.6 hPa 89% 0.2mm
28/05:30am E 4-5 kts 24.6°c 1009.1 hPa 89% 0.2mm
28/05:00am ESE 3-4 kts 24.8°c 1009.3 hPa 88% 0.2mm
28/04:30am E 3-5 kts 24.7°c 1009.2 hPa 89% 0.2mm
28/04:00am E 3-5 kts 24.6°c 1008.9 hPa 89% 0.2mm
28/03:30am ENE 2-4 kts 24.4°c 1009.2 hPa 91% 0.2mm
28/03:00am E 3-4 kts 24.7°c 1009.3 hPa 88% 0.2mm
28/02:30am CALM 0 kts 24.8°c 1009.5 hPa 88% 0.2mm
28/02:00am CALM 0 kts 25.0°c 1009.5 hPa 85% 0.2mm
28/01:30am CALM 0 kts 25.3°c 1010.0 hPa 84% 0.2mm
28/01:00am SE 4-5 kts 26.0°c 1010.4 hPa 80% 0.2mm
28/12:30am SE 6-8 kts 26.1°c 1011.1 hPa 80% 0.2mm
28/12:00am SE 9-13 kts 26.5°c 1011.0 hPa 80% 0.2mm